sat.trackr.live / text

‹ back to catalog

STARLINK-33773

NORAD 63713 · 2025-087S

PAYLOAD ACTIVE UNKNOWN

§ Identity

Operator
Country
US
Launch date
2025-04-28
Launch site
AFWTR
Launch vehicle
Mass (kg)
RCS (m²)

Purposes: comms

External: N2YO · Heavens-Above · Gunter

§ Orbital elements

Epoch: 2026-05-25T05:17:52.918368Z

Period
94.01 min
Inclination
53.1593°
Eccentricity
0.0001386
Mean motion
15.31720479 rev/d
Perigee alt
469.7 km
Apogee alt
471.6 km
Semi-major
6,848.8 km
B*
7.7850e-4
RAAN
223.5932°
Arg perigee
103.6578°
Mean anomaly
256.4578°
Rev number
6,092

§ Raw data

STARLINK-337731 63713U 25087S   26145.22075137  .00023885  00000+0  77850-3 0  99922 63713  53.1593 223.5932 0001386 103.6578 256.4578 15.31720479 60925

JSON: /api/v1/satellites/63713 · /tle

For live sub-satellite position, see the globe view (requires WebGL).

§ Visibility from observer

Set your observer location to see the next 7 days of passes ≥ 10°. The values pass through the URL so the page stays shareable.

No JS? Fill the form by hand. The geolocation button needs JavaScript.